TimeCDT,TemperatureF,Dew PointF,Humidity,Sea Level PressureIn,VisibilityMPH,Wind Direction,Wind SpeedMPH,Gust SpeedMPH,PrecipitationIn,Events,Conditions,WindDirDegrees,DateUTC
12:15 AM,60.8,51.8,72,30.05,10.0,South,6.9,-,N/A,,Overcast,190,2013-07-25 05:15:00
12:35 AM,60.8,50.0,68,30.04,10.0,SSW,10.4,-,N/A,,Overcast,200,2013-07-25 05:35:00
12:55 AM,60.8,50.0,68,30.04,10.0,SSW,8.1,-,N/A,,Overcast,200,2013-07-25 05:55:00
1:15 AM,60.8,50.0,68,30.04,10.0,South,9.2,-,N/A,,Overcast,190,2013-07-25 06:15:00
1:35 AM,60.8,50.0,68,30.03,10.0,South,8.1,-,N/A,,Overcast,190,2013-07-25 06:35:00
1:55 AM,60.8,50.0,68,30.03,10.0,South,8.1,-,N/A,,Overcast,190,2013-07-25 06:55:00
2:15 AM,60.8,50.0,68,30.02,10.0,SSW,8.1,-,N/A,,Overcast,200,2013-07-25 07:15:00
2:35 AM,59.0,50.0,72,30.03,10.0,SSW,8.1,-,N/A,,Overcast,200,2013-07-25 07:35:00
2:55 AM,59.0,50.0,72,30.03,10.0,South,6.9,-,N/A,,Overcast,190,2013-07-25 07:55:00
3:15 AM,57.2,50.0,77,30.03,10.0,SSW,8.1,-,N/A,,Mostly Cloudy,200,2013-07-25 08:15:00
3:35 AM,57.2,50.0,77,30.03,10.0,SSW,8.1,-,N/A,,Mostly Cloudy,200,2013-07-25 08:35:00
3:55 AM,57.2,50.0,77,30.03,10.0,SSW,8.1,-,N/A,,Scattered Clouds,200,2013-07-25 08:55:00
4:15 AM,55.4,50.0,82,30.03,10.0,SSW,6.9,-,N/A,,Clear,200,2013-07-25 09:15:00
4:35 AM,55.4,50.0,82,30.03,10.0,SSW,6.9,-,N/A,,Clear,200,2013-07-25 09:35:00
4:55 AM,55.4,50.0,82,30.04,10.0,SSW,5.8,-,N/A,,Clear,210,2013-07-25 09:55:00
5:15 AM,55.4,51.8,88,30.04,10.0,SSW,6.9,-,N/A,,Clear,210,2013-07-25 10:15:00
5:35 AM,55.4,51.8,88,30.04,10.0,SSW,6.9,-,N/A,,Clear,200,2013-07-25 10:35:00
5:55 AM,55.4,51.8,88,30.04,10.0,SSW,6.9,-,N/A,,Clear,210,2013-07-25 10:55:00
6:15 AM,57.2,51.8,82,30.04,10.0,SW,5.8,-,N/A,,Mostly Cloudy,220,2013-07-25 11:15:00
6:35 AM,57.2,53.6,88,30.04,10.0,SW,6.9,-,N/A,,Mostly Cloudy,220,2013-07-25 11:35:00
6:55 AM,60.8,53.6,77,30.05,10.0,SW,6.9,-,N/A,,Clear,220,2013-07-25 11:55:00
7:15 AM,62.6,53.6,72,30.05,10.0,SW,8.1,-,N/A,,Partly Cloudy,220,2013-07-25 12:15:00
7:35 AM,62.6,53.6,72,30.06,10.0,SW,9.2,-,N/A,,Mostly Cloudy,220,2013-07-25 12:35:00
7:55 AM,64.4,53.6,68,30.06,10.0,SW,6.9,-,N/A,,Scattered Clouds,230,2013-07-25 12:55:00
8:15 AM,66.2,53.6,64,30.06,10.0,SSW,9.2,-,N/A,,Partly Cloudy,210,2013-07-25 13:15:00
8:35 AM,66.2,53.6,64,30.05,10.0,SW,11.5,-,N/A,,Partly Cloudy,220,2013-07-25 13:35:00
8:55 AM,68.0,55.4,64,30.05,10.0,SW,8.1,-,N/A,,Clear,220,2013-07-25 13:55:00
9:15 AM,69.8,55.4,60,30.05,10.0,SW,6.9,-,N/A,,Clear,220,2013-07-25 14:15:00
9:35 AM,69.8,55.4,60,30.05,10.0,SW,10.4,-,N/A,,Clear,220,2013-07-25 14:35:00
9:55 AM,71.6,55.4,57,30.05,10.0,WSW,9.2,-,N/A,,Clear,240,2013-07-25 14:55:00
10:15 AM,71.6,55.4,57,30.05,10.0,South,8.1,-,N/A,,Clear,190,2013-07-25 15:15:00
10:35 AM,73.4,53.6,50,30.05,10.0,SW,10.4,17.3,N/A,,Partly Cloudy,230,2013-07-25 15:35:00
10:55 AM,75.2,53.6,47,30.05,10.0,SSW,13.8,17.3,N/A,,Scattered Clouds,200,2013-07-25 15:55:00
11:15 AM,73.4,53.6,50,30.06,10.0,SSW,13.8,18.4,N/A,,Scattered Clouds,210,2013-07-25 16:15:00
11:35 AM,73.4,57.2,57,30.05,10.0,South,9.2,-,N/A,,Mostly Cloudy,180,2013-07-25 16:35:00
11:55 AM,73.4,57.2,57,30.04,10.0,South,10.4,18.4,N/A,,Overcast,180,2013-07-25 16:55:00
12:15 PM,71.6,57.2,60,30.04,10.0,SSE,12.7,-,N/A,,Mostly Cloudy,160,2013-07-25 17:15:00
12:35 PM,73.4,57.2,57,30.04,10.0,South,13.8,18.4,N/A,,Scattered Clouds,180,2013-07-25 17:35:00
12:55 PM,73.4,55.4,53,30.03,10.0,South,17.3,21.9,N/A,,Partly Cloudy,170,2013-07-25 17:55:00
1:15 PM,73.4,57.2,57,30.03,10.0,South,12.7,21.9,N/A,,Clear,170,2013-07-25 18:15:00
1:35 PM,73.4,55.4,53,30.03,10.0,South,13.8,23.0,N/A,,Clear,180,2013-07-25 18:35:00
1:55 PM,73.4,55.4,53,30.03,10.0,South,15.0,23.0,N/A,,Scattered Clouds,170,2013-07-25 18:55:00
2:15 PM,73.4,55.4,53,30.02,10.0,South,16.1,25.3,N/A,,Partly Cloudy,190,2013-07-25 19:15:00
2:35 PM,73.4,55.4,53,30.02,10.0,South,15.0,23.0,N/A,,Clear,170,2013-07-25 19:35:00
2:55 PM,73.4,55.4,53,30.02,10.0,South,20.7,26.5,N/A,,Partly Cloudy,170,2013-07-25 19:55:00
3:15 PM,73.4,55.4,53,30.01,10.0,South,17.3,25.3,N/A,,Scattered Clouds,180,2013-07-25 20:15:00
3:35 PM,73.4,55.4,53,30.00,10.0,South,18.4,26.5,N/A,,Clear,170,2013-07-25 20:35:00
3:55 PM,73.4,53.6,50,29.99,10.0,South,23.0,31.1,N/A,,Clear,180,2013-07-25 20:55:00
4:15 PM,73.4,51.8,47,29.98,10.0,South,20.7,27.6,N/A,,Clear,170,2013-07-25 21:15:00
4:35 PM,71.6,51.8,50,29.98,10.0,South,21.9,31.1,N/A,,Clear,190,2013-07-25 21:35:00
4:55 PM,71.6,51.8,50,29.99,10.0,South,19.6,26.5,N/A,,Clear,170,2013-07-25 21:55:00
5:15 PM,69.8,53.6,56,29.99,10.0,South,19.6,25.3,N/A,,Clear,170,2013-07-25 22:15:00
5:35 PM,69.8,53.6,56,29.98,10.0,South,18.4,26.5,N/A,,Clear,180,2013-07-25 22:35:00
5:55 PM,69.8,53.6,56,29.97,10.0,South,21.9,27.6,N/A,,Clear,180,2013-07-25 22:55:00
6:15 PM,68.0,55.4,64,29.97,10.0,South,15.0,25.3,N/A,,Clear,180,2013-07-25 23:15:00
6:35 PM,68.0,55.4,64,29.96,10.0,South,16.1,25.3,N/A,,Clear,190,2013-07-25 23:35:00
6:55 PM,66.2,55.4,68,29.96,10.0,South,17.3,27.6,N/A,,Clear,180,2013-07-25 23:55:00
7:15 PM,66.2,55.4,68,29.96,10.0,South,16.1,24.2,N/A,,Clear,180,2013-07-26 00:15:00
7:35 PM,66.2,57.2,73,29.96,10.0,South,15.0,21.9,N/A,,Clear,170,2013-07-26 00:35:00
7:55 PM,66.2,57.2,73,29.95,10.0,South,13.8,-,N/A,,Clear,180,2013-07-26 00:55:00
8:15 PM,66.2,57.2,73,29.95,10.0,South,12.7,19.6,N/A,,Clear,180,2013-07-26 01:15:00
8:35 PM,66.2,57.2,73,29.94,10.0,South,15.0,18.4,N/A,,Partly Cloudy,180,2013-07-26 01:35:00
8:55 PM,66.2,59.0,78,29.94,10.0,South,12.7,-,N/A,,Scattered Clouds,180,2013-07-26 01:55:00
9:15 PM,64.4,59.0,83,29.94,10.0,South,16.1,23.0,N/A,,Scattered Clouds,180,2013-07-26 02:15:00
9:35 PM,66.2,59.0,78,29.95,10.0,South,15.0,19.6,N/A,,Clear,190,2013-07-26 02:35:00
9:55 PM,66.2,59.0,78,29.96,10.0,South,11.5,19.6,N/A,,Clear,190,2013-07-26 02:55:00
10:15 PM,66.2,59.0,78,29.96,10.0,South,9.2,-,N/A,,Clear,190,2013-07-26 03:15:00
10:35 PM,66.2,59.0,78,29.96,10.0,South,9.2,-,N/A,,Mostly Cloudy,190,2013-07-26 03:35:00
10:55 PM,66.2,59.0,78,29.96,10.0,South,6.9,-,N/A,,Overcast,180,2013-07-26 03:55:00
11:15 PM,66.2,60.8,83,29.96,10.0,South,6.9,-,N/A,,Overcast,180,2013-07-26 04:15:00
11:35 PM,66.2,60.8,83,29.96,8.0,South,6.9,-,N/A,,Overcast,180,2013-07-26 04:35:00
11:55 PM,64.4,60.8,88,29.96,10.0,South,8.1,-,N/A,,Overcast,180,2013-07-26 04:55:00